Dewpoint
61 58 51 43 42 35 36 29 6 13 7 1 11 5 -20 5 14 15 20 39 41 49 53 53 50 55 52 52 51 53 56 53 53 50 49 62 67 68 68 68 69 69 70 69 72 73 72 73 72 72 73 73 73 73 73 73 73 73 73 73 72 72 72 72 72 71 71 71 71 71 70 70 70 70 71 70 70 71 70 70 70 70 70 70 70 70 69 68 67 67 67 67 67 68 68 68 69
47 48 44 42 39 32 28 28 20 15 13 6 8 9 7 15 19 17 9 38 42 51 56 55 56 56 57 56 57 56 56 61 60 58 63 66 67 68 69 69 68 69 70 70 72 72 73 73 72 72 73 73 73 73 73 73 73 72 72 73 73 72 72 72 72 71 71 71 71 71 71 71 71 71 71 70 71 71 71 71 68 69 70 70 70 69 68 68 67 67 66 67 67 67 67 68 68
41 41 33 40 30 34 33 25 5 18 2 -4 -7 9 19 31 27 19 16 34 52 55 54 53 53 53 54 55 53 54 55 62 62 64 64 67 64 67 68 69 69 70 70 70 71 72 73 71 72 72 72 73 73 73 73 73 73 73 73 73 73 73 73 72 72 72 72 72 72 71 71 71 71 71 70 70 72 71 71 71 69 69 69 69 69 68 68 67 67 66 67 66 66 67 67 68 68
46 48 33 35 27 30 25 21 16 8 -9 -9 9 31 32 39 39 42 42 44 54 51 50 52 52 54 53 51 55 59 59 60 63 63 64 65 65 68 68 69 70 69 70 70 70 71 73 72 72 72 72 73 73 73 73 73 72 72 72 72 73 73 73 72 72 72 71 72 72 72 71 71 71 71 71 71 71 70 70 70 70 69 69 69 68 68 68 67 67 66 66 66 66 67 67 68 68
35 42 38 31 28 28 24 24 19 10 -10 13 27 38 41 43 46 47 43 52 51 47 48 52 53 57 57 57 57 53 57 62 64 65 65 68 68 68 68 69 68 68 68 69 70 71 72 73 72 72 71 73 73 73 72 72 72 73 73 72 73 73 73 72 72 72 72 72 71 71 71 71 71 71 71 71 70 70 70 70 70 70 69 70 69 68 68 69 67 66 66 66 67 68 68 68 68
31 33 37 31 28 31 23 19 21 12 -0 20 31 34 26 38 47 48 51 48 47 48 51 51 51 53 57 60 60 59 62 59 64 65 67 68 68 68 68 68 68 68 68 69 70 71 72 73 72 72 71 73 73 73 72 72 73 72 73 72 73 73 73 73 72 72 71 71 71 71 71 71 71 71 71 71 70 70 70 70 70 70 69 69 68 68 67 68 67 67 67 67 68 68 68 68 67
27 31 33 27 26 29 22 20 16 15 13 16 21 22 21 25 44 43 43 43 45 50 55 52 56 56 55 59 60 64 65 64 64 65 68 69 68 68 68 67 67 68 69 69 70 70 72 73 73 72 72 72 71 73 73 73 72 72 73 73 73 73 73 72 72 72 71 71 70 71 71 71 71 71 71 70 70 70 70 70 70 70 69 68 68 67 67 66 68 69 68 68 69 69 69 69 69
36 28 32 25 22 24 20 24 20 22 13 20 20 21 23 23 24 32 41 41 44 44 52 54 52 53 55 59 56 63 66 66 66 68 69 69 68 68 68 67 67 67 68 70 71 71 73 72 73 72 72 70 71 73 73 73 72 72 72 72 73 73 73 72 72 72 72 72 71 70 70 70 70 70 71 71 71 71 71 70 70 70 70 69 68 67 67 66 68 69 69 69 68 69 68 68 68
29 30 31 21 18 22 20 18 17 23 23 24 23 27 36 31 30 25 27 40 40 48 51 53 52 49 54 58 59 63 66 67 68 69 69 68 67 67 67 67 66 67 68 69 70 71 72 72 72 73 72 70 70 72 72 73 73 73 72 72 73 73 73 72 72 72 72 72 71 70 70 70 69 70 70 70 70 70 70 70 70 70 70 70 69 67 67 67 68 69 69 68 68 67 68 67 67
26 29 23 26 20 12 16 15 16 15 18 19 18 18 20 25 23 22 21 33 39 49 52 55 55 51 56 56 58 62 65 68 68 68 68 68 67 67 67 68 68 67 68 68 69 70 71 72 73 73 72 72 72 71 71 72 73 73 73 73 72 72 73 72 72 72 72 72 71 71 71 70 70 70 70 70 70 70 70 70 70 70 69 69 69 68 67 67 68 68 68 68 68 67 68 67 66
25 23 30 15 18 11 11 10 15 17 19 21 21 22 21 20 20 19 23 33 45 45 52 55 54 56 56 56 59 64 67 68 67 68 68 68 67 66 67 67 68 68 67 68 69 70 70 72 73 73 72 72 71 70 70 72 72 72 72 72 72 73 73 73 73 72 72 72 72 71 71 71 70 70 69 69 69 69 70 70 70 70 69 69 69 68 68 68 68 68 68 68 68 68 68 67 66
23 21 18 20 16 11 11 11 18 17 20 21 16 20 23 20 19 18 17 24 41 48 50 52 50 57 55 57 58 65 66 67 67 68 68 68 67 67 67 67 68 67 68 69 69 70 70 71 72 73 72 72 72 71 71 72 72 72 72 72 72 73 73 73 72 72 72 72 72 72 72 71 70 70 70 69 69 70 70 70 70 70 69 69 69 68 68 68 68 68 69 69 69 68 68 67 66
24 22 19 15 14 16 21 17 12 24 22 15 12 17 21 19 15 15 16 19 41 46 49 53 56 55 51 56 61 64 65 67 68 68 68 67 67 67 67 67 67 67 67 69 69 69 70 71 70 70 72 72 72 72 72 72 72 71 70 70 72 72 73 73 73 72 72 72 72 72 72 71 71 70 70 70 70 70 70 70 70 70 70 69 69 68 69 69 69 69 69 69 69 68 67 66 66
22 22 19 12 22 19 15 12 16 13 8 14 16 18 14 12 14 15 17 18 42 41 51 55 56 57 57 57 60 61 64 67 68 68 68 67 68 67 67 66 67 67 68 68 68 68 69 69 70 71 71 73 73 71 70 71 71 69 68 69 70 68 69 71 72 72 72 72 72 72 72 71 71 71 71 71 71 71 71 70 70 70 70 70 69 69 69 70 69 69 68 68 68 67 67 66 67
20 23 25 21 14 13 14 8 10 12 9 15 15 11 13 21 21 20 17 16 37 51 55 57 56 47 43 52 52 59 64 67 68 68 69 68 67 67 66 66 67 67 67 67 68 68 68 69 69 70 71 71 73 72 71 71 70 69 68 68 66 66 67 69 70 72 71 72 72 71 71 71 71 70 71 71 71 71 71 70 71 70 70 70 69 69 69 69 69 69 68 68 68 67 66 67 67
22 16 20 17 11 10 10 13 16 12 11 13 13 11 14 33 37 28 22 25 45 54 55 53 54 44 53 52 54 61 65 68 68 69 69 68 68 67 66 66 66 66 66 67 68 68 68 68 69 69 70 70 71 72 72 71 70 69 68 68 66 66 66 68 68 69 70 70 70 69 70 70 70 69 70 70 70 71 71 69 71 70 70 70 70 69 68 69 69 69 68 68 68 67 67 68 68
20 17 16 16 10 11 9 13 13 8 12 12 14 10 12 25 40 48 50 49 50 52 51 51 52 53 49 55 58 64 66 68 68 68 68 67 67 67 67 67 66 65 65 67 68 68 67 68 68 69 70 70 70 71 72 72 71 69 69 68 67 66 67 68 68 69 68 69 69 69 68 70 71 70 70 68 68 70 70 70 70 70 70 70 70 70 69 68 68 69 68 68 68 67 68 68 68
14 18 16 13 13 11 14 11 12 11 9 9 11 11 13 32 45 47 48 48 49 50 53 57 59 60 60 61 63 65 67 67 67 67 66 66 66 65 66 67 66 64 65 66 66 66 68 67 67 67 69 69 70 70 71 72 71 70 70 68 68 68 68 67 68 70 69 71 69 70 70 70 70 70 70 69 70 69 69 71 71 70 70 70 70 70 69 68 68 69 69 68 68 68 66 65 66
16 20 16 9 15 11 18 17 16 11 9 11 12 12 17 35 45 43 45 47 49 50 53 57 59 61 62 63 65 66 66 66 67 66 65 65 65 65 65 66 66 65 65 66 66 66 67 67 66 66 66 68 69 69 70 72 71 71 70 69 69 68 68 69 68 69 69 70 70 69 70 70 69 69 70 67 69 69 69 70 70 70 70 70 70 70 69 69 69 68 68 68 66 66 63 62 62
15 16 11 11 15 14 19 17 11 12 12 11 12 10 25 36 35 39 45 45 47 47 51 55 57 59 62 63 64 65 65 66 66 66 65 65 65 65 65 65 65 65 65 65 66 67 67 67 66 66 66 67 68 69 69 70 71 70 70 69 69 70 70 69 68 68 69 70 69 70 70 70 69 72 68 68 69 69 70 69 67 68 69 70 70 69 69 69 69 69 68 67 66 63 62 59 59
11 12 9 10 12 12 12 15 14 14 13 12 11 14 29 27 34 43 44 45 45 47 51 51 55 58 62 63 64 65 65 65 65 65 65 64 65 65 65 65 65 65 65 65 66 67 67 67 67 67 66 67 68 69 68 69 70 70 69 69 68 69 69 68 68 68 69 70 69 70 68 70 69 71 71 71 70 71 71 70 69 68 68 68 68 66 66 63 67 66 67 66 66 65 63 62 61
12 9 11 12 13 10 11 11 13 13 13 11 12 9 30 31 41 43 44 42 42 45 48 47 56 60 62 63 64 64 64 64 64 63 63 63 63 64 64 64 65 65 65 65 65 66 67 67 67 67 66 66 67 68 68 68 69 69 69 69 68 68 68 68 68 68 69 69 70 69 69 70 70 70 71 71 71 71 70 70 69 68 68 68 67 66 64 66 65 65 65 65 65 65 65 64 63
8 10 9 13 11 9 11 10 12 11 10 9 9 10 23 34 40 43 43 41 36 35 38 46 59 61 62 63 63 63 63 63 62 63 62 62 63 63 63 64 64 64 65 65 65 66 67 67 67 66 66 67 67 67 67 68 68 69 69 69 68 68 68 68 67 68 69 69 69 68 69 70 70 70 70 71 70 70 70 70 69 68 68 68 68 65 65 66 65 64 64 65 64 64 63 62 61
8 6 10 8 10 9 10 9 10 10 10 9 10 14 10 33 35 41 41 31 35 40 44 55 59 61 62 62 62 62 61 61 61 62 62 62 63 62 62 63 64 65 65 65 65 66 67 67 67 66 67 67 67 66 67 68 68 69 69 69 69 68 68 68 68 68 69 70 69 70 70 70 70 70 70 70 69 69 69 69 69 69 67 67 67 65 64 64 64 64 64 64 63 63 61 61 58
7 7 9 8 9 9 9 8 9 10 11 10 10 9 10 27 32 40 41 36 42 50 55 58 59 60 61 61 60 60 60 60 60 60 60 60 62 61 61 62 63 64 64 64 65 66 67 67 67 67 67 67 67 66 67 68 68 68 68 68 69 69 68 68 68 69 69 69 69 69 70 70 69 70 69 69 69 69 70 70 69 68 69 67 67 66 65 65 64 64 64 64 63 62 62 61 59
9 10 12 10 10 11 11 11 11 11 10 11 10 11 20 26 33 38 37 39 48 54 56 58 59 59 59 59 60 59 58 59 59 58 58 56 55 57 57 60 63 64 64 64 65 66 67 67 67 67 67 67 67 67 67 67 67 67 67 67 67 68 68 68 68 68 68 69 69 69 69 70 70 70 69 69 68 69 68 69 69 69 68 69 68 66 67 65 65 64 65 64 59 61 59 61 60
12 10 9 10 11 11 12 10 12 11 12 12 9 19 24 22 23 29 35 43 52 53 55 57 58 58 58 58 58 59 59 58 57 56 53 53 53 56 57 60 62 63 63 64 65 66 67 67 67 67 67 68 67 66 67 67 67 67 67 67 67 67 67 67 67 67 68 69 69 69 69 69 68 67 67 67 67 64 64 65 67 68 67 67 67 66 66 66 66 65 64 61 60 61 60 61 59
12 12 12 11 10 11 11 11 11 11 9 13 10 12 11 13 19 18 27 43 51 52 54 55 56 56 56 56 57 56 57 56 54 54 53 52 52 55 57 60 63 62 63 64 65 66 67 67 67 67 67 68 67 66 67 67 67 67 67 67 67 66 67 67 66 67 67 66 67 68 68 67 66 65 65 65 64 64 65 65 65 65 66 67 67 67 67 66 66 65 64 64 64 63 62 62 62
13 10 9 8 11 10 9 10 10 13 8 10 15 13 11 17 17 21 36 43 49 51 53 54 54 54 55 55 55 54 54 53 52 52 53 52 52 54 57 61 62 61 63 64 65 65 66 67 66 66 67 67 67 67 66 67 67 66 66 66 66 66 65 65 65 65 66 66 66 66 65 66 67 66 66 65 65 65 65 64 65 65 65 65 66 67 66 66 66 65 65 64 64 63 63 63 62
12 9 8 6 9 7 8 14 12 8 8 10 9 8 10 11 12 14 41 43 48 50 51 52 52 52 53 53 52 53 53 51 51 51 51 50 51 53 57 58 61 62 61 61 64 65 66 66 66 66 66 66 67 66 66 66 66 66 66 66 66 65 65 64 65 65 66 66 65 65 66 65 65 66 65 65 66 65 65 64 65 65 65 65 65 66 66 68 66 64 63 63 63 63 62 64 62
9 9 13 14 10 7 9 14 13 7 10 9 7 12 8 13 12 23 40 42 46 48 50 51 51 51 51 51 51 51 51 51 50 51 52 51 51 51 56 57 59 60 59 60 64 65 65 65 65 65 66 65 66 66 66 66 65 65 64 65 65 65 65 64 65 65 64 65 65 66 66 66 65 66 65 65 66 66 65 65 65 65 65 65 66 66 67 67 67 66 65 62 64 64 64 63 64
15 8 7 10 10 8 10 13 12 11 10 10 8 15 8 9 10 25 40 41 43 47 50 50 50 50 51 50 50 49 50 49 49 50 51 51 50 50 54 56 57 57 59 61 64 64 64 65 65 65 65 66 66 65 65 65 65 65 64 63 65 65 63 63 63 63 63 63 63 63 63 64 64 65 65 65 66 66 65 65 65 65 65 65 65 65 65 65 65 65 66 66 65 62 62 63 63
16 17 20 15 16 12 9 17 18 15 12 12 8 8 10 9 11 26 37 41 41 44 48 49 49 49 51 50 49 48 48 48 47 47 50 50 50 51 53 55 56 57 59 60 62 63 64 64 64 65 65 65 65 64 63 63 62 62 62 62 62 63 62 63 62 63 62 62 62 62 63 63 63 63 64 65 65 65 66 64 65 64 65 65 65 64 64 65 66 65 65 66 66 65 61 60 61
16 23 23 18 17 17 14 18 17 25 15 15 11 9 13 13 14 23 35 41 41 42 45 47 49 49 50 50 48 47 47 48 48 48 51 51 48 50 52 54 55 55 56 58 61 63 63 63 64 64 64 64 63 61 61 60 60 60 60 60 61 60 62 61 62 61 62 61 62 63 63 63 64 64 64 64 65 65 66 66 66 65 65 65 64 64 64 64 65 64 64 65 65 65 65 63 62
16 20 23 19 21 19 17 16 17 23 19 16 15 13 13 13 17 23 37 37 41 42 43 45 47 48 49 49 48 46 46 47 48 48 50 51 52 50 51 54 55 55 55 56 58 60 61 61 61 62 62 61 60 60 60 60 60 60 60 60 60 60 61 62 62 61 62 63 63 63 64 64 64 64 63 63 63 64 65 65 64 63 64 65 64 64 64 64 64 64 64 65 65 66 65 66 64
13 20 20 21 21 18 17 19 20 25 19 11 16 15 15 17 16 18 34 34 41 42 43 43 44 44 47 47 47 46 46 46 47 48 51 51 50 51 52 53 54 54 55 55 56 58 60 60 61 61 60 59 59 59 58 57 57 57 57 58 58 59 60 60 61 61 62 62 64 63 63 64 62 63 62 63 62 62 63 64 63 63 63 64 64 63 64 63 63 63 64 63 63 64 65 66 65
29 28 25 21 18 19 19 20 21 32 18 14 24 25 23 23 20 22 31 34 39 41 41 43 42 42 43 45 47 47 47 46 45 48 50 50 51 51 53 53 53 54 54 55 55 57 58 59 59 59 59 59 57 55 56 55 55 56 58 59 58 59 58 61 61 61 60 60 59 58 59 58 60 60 60 62 64 63 62 62 62 63 63 63 63 63 63 63 64 63 63 63 63 63 64 64 64
24 27 23 18 19 20 18 20 30 28 22 18 28 25 22 23 25 28 31 31 36 39 41 42 41 41 42 44 46 47 47 44 43 48 50 51 49 52 53 53 53 52 53 54 54 55 57 58 59 59 58 58 58 58 57 58 58 56 56 57 58 58 57 57 58 59 59 59 59 59 60 60 60 60 61 62 63 63 62 61 61 61 61 61 62 62 62 62 62 62 62 62 63 63 63 63 63
29 22 22 20 19 20 24 26 33 30 28 21 24 21 21 24 28 31 31 31 36 38 40 41 41 41 41 41 44 47 46 45 45 47 50 49 51 51 51 53 53 54 54 53 55 55 56 56 58 58 57 57 57 58 57 56 57 59 59 58 58 56 57 59 58 58 57 55 59 58 59 60 60 59 61 62 63 63 62 61 61 62 62 61 60 60 61 62 63 63 62 61 62 63 63 63 63
25 23 22 20 24 21 17 27 33 32 28 24 26 21 25 34 35 34 36 33 33 40 37 41 42 41 41 42 43 45 46 46 46 46 47 49 50 51 51 52 53 53 53 53 53 54 55 55 56 57 57 57 56 57 56 57 57 59 60 59 58 58 56 59 59 57 56 56 55 57 57 59 59 58 58 58 59 60 60 59 59 59 60 61 59 58 59 59 60 62 62 62 61 60 61 61 63
31 30 24 21 25 24 20 22 32 35 33 32 25 25 23 30 24 23 29 32 32 33 31 33 35 38 42 44 43 45 46 48 47 46 47 49 50 50 50 52 53 52 53 52 53 54 54 55 56 57 56 56 56 57 57 58 58 58 58 58 58 57 57 56 56 55 56 55 54 55 56 58 57 58 58 58 57 59 59 59 59 59 59 59 59 57 57 58 57 59 61 62 61 61 60 61 61
26 34 30 28 33 27 27 31 27 22 19 30 25 13 16 24 26 25 25 28 26 28 29 29 31 32 35 38 41 43 47 48 48 47 46 48 50 51 51 51 52 52 52 53 53 54 54 55 55 56 56 56 56 57 58 57 56 57 56 55 53 53 53 54 52 54 55 54 52 56 55 56 56 57 57 57 57 57 59 59 59 57 58 58 57 56 57 56 57 57 58 60 60 61 60 60 60
24 20 34 33 30 32 32 28 24 19 14 25 31 16 13 27 19 22 28 29 29 31 32 29 30 31 30 35 39 42 43 45 47 47 46 47 49 50 50 51 51 51 51 53 52 53 55 55 55 56 55 55 57 57 57 57 57 57 57 55 54 53 53 55 57 58 56 54 55 55 55 57 55 56 57 56 57 57 58 58 59 58 57 57 57 56 55 56 55 56 56 57 58 59 60 58 58
16 32 31 29 30 28 31 28 24 19 29 32 29 20 16 18 20 30 28 29 24 28 30 31 26 28 29 32 34 40 42 45 46 47 46 46 48 49 50 50 52 51 53 51 52 53 54 54 54 55 55 55 57 56 56 58 56 57 57 56 54 53 54 55 56 57 59 56 54 55 55 55 56 55 56 55 56 56 57 57 57 57 55 54 52 52 52 52 53 53 55 56 56 56 58 57 55
24 32 28 30 28 34 32 24 24 25 23 14 20 26 18 18 22 29 27 18 23 21 26 26 27 29 29 30 29 30 36 41 44 46 47 46 48 49 50 51 51 52 51 51 51 53 54 55 55 55 55 56 57 56 56 57 57 58 57 55 54 53 54 54 55 56 56 56 55 55 55 54 55 56 54 55 54 53 55 55 56 54 54 52 49 49 51 50 52 52 52 52 53 54 56 57 56
29 31 28 27 29 30 30 24 21 22 19 16 18 25 15 13 24 19 24 18 20 24 26 25 27 29 30 32 34 35 32 33 36 41 46 47 48 50 52 52 51 52 53 52 52 52 52 54 54 54 54 55 57 56 55 56 57 57 56 56 55 54 53 54 55 56 56 56 55 56 55 54 54 55 56 54 54 53 54 55 54 54 55 52 50 49 51 52 52 51 52 52 53 53 54 54 54
33 30 19 17 21 22 25 23 21 20 15 15 25 26 20 11 17 20 20 24 24 26 28 28 29 29 28 32 31 32 30 30 29 33 41 46 48 50 51 50 51 52 53 52 51 51 52 53 54 53 54 55 56 56 55 55 56 57 56 56 56 55 55 55 54 56 55 55 54 55 54 54 55 55 55 56 55 55 56 55 55 54 54 53 50 49 50 48 50 51 51 51 51 50 49 51 51
26 24 20 18 19 21 19 18 22 15 13 19 21 23 23 13 15 23 25 26 27 29 28 28 29 27 27 29 27 29 32 32 31 32 39 45 47 49 50 50 51 51 52 52 52 51 51 53 54 53 54 55 56 56 56 55 54 56 56 57 56 56 56 54 55 55 56 55 55 54 54 54 54 55 55 54 55 56 56 56 56 54 53 52 51 51 50 49 50 49 49 49 49 50 50 49 49
21 22 18 14 12 15 12 14 12 12 12 17 20 23 18 15 20 24 25 27 27 31 27 28 27 25 27 25 26 28 34 34 34 36 41 45 47 50 50 50 51 51 51 51 52 52 51 52 53 53 53 55 55 56 56 55 54 55 55 56 56 56 56 55 55 55 56 55 54 54 54 52 53 53 54 54 55 56 56 55 54 52 52 53 52 51 51 50 50 49 49 49 49 48 47 48 47
20 19 20 15 10 8 7 7 12 10 17 21 20 25 13 20 19 25 26 28 27 29 30 27 26 27 27 24 25 27 32 35 36 38 41 44 47 49 50 50 50 51 51 51 52 52 51 51 53 52 52 55 55 55 55 55 54 55 55 55 55 55 56 56 55 54 56 55 55 54 53 53 52 53 54 54 55 56 55 55 55 54 53 52 52 52 52 50 50 46 49 49 49 49 48 48 47
17 17 15 17 14 7 9 7 7 8 11 19 21 18 17 17 19 25 27 28 27 25 23 24 27 25 27 24 25 27 31 35 38 40 41 45 48 50 51 51 51 50 51 51 51 51 51 50 51 52 52 53 54 55 55 55 54 54 54 54 54 55 55 55 55 55 56 55 55 55 54 55 53 54 53 55 56 56 56 56 55 54 53 53 52 52 51 51 51 47 48 50 49 48 48 47 47
18 20 15 16 19 20 7 16 13 12 12 13 19 17 21 21 24 27 30 25 22 24 22 25 22 23 24 27 28 28 31 34 37 41 41 47 50 51 51 51 51 50 50 51 51 52 52 50 50 51 51 52 54 54 54 55 54 54 54 54 54 55 55 55 55 55 55 56 56 55 55 55 55 55 56 56 56 56 56 55 54 54 53 53 52 50 49 48 49 48 47 49 48 48 48 48 47
20 12 17 15 21 21 21 20 22 19 16 11 17 22 20 22 21 26 24 21 21 22 20 19 22 23 28 28 28 28 31 33 37 39 41 47 48 50 50 50 51 51 51 51 51 52 52 52 51 50 50 51 53 54 54 54 54 54 54 54 54 54 55 55 55 56 56 56 56 56 55 55 56 56 56 57 56 56 56 55 53 53 53 52 51 50 49 48 47 47 46 47 47 47 47 46 46
12 12 13 21 22 28 20 10 15 13 12 13 18 18 16 15 16 23 21 21 21 19 19 18 25 25 25 28 31 30 31 34 37 40 43 44 46 49 50 51 50 51 51 51 51 52 52 52 51 50 50 50 51 53 54 54 54 54 54 54 54 54 54 55 56 56 56 55 55 55 56 55 54 55 56 56 57 56 56 55 54 53 53 52 51 50 48 47 48 46 47 46 46 47 47 47 46
13 13 20 18 15 14 22 18 10 10 10 11 16 16 17 15 16 21 20 20 21 20 20 21 20 24 27 29 30 32 34 35 35 37 39 43 46 47 50 51 49 51 51 51 51 51 52 52 52 52 51 51 52 53 53 54 54 53 53 54 54 54 54 54 55 55 56 54 54 54 55 54 56 55 54 56 56 55 55 54 54 53 52 51 51 50 50 48 47 46 47 46 48 48 45 45 46
23 19 17 23 23 23 16 17 19 15 8 11 15 13 12 17 18 25 21 22 22 20 21 20 21 23 28 29 31 32 34 36 34 34 36 38 41 45 49 50 49 51 52 52 52 52 51 52 52 52 52 53 53 53 54 54 54 53 53 52 53 52 52 52 54 55 55 54 54 54 54 55 55 54 54 55 54 54 54 53 53 52 51 50 50 50 49 49 48 47 46 45 47 47 44 44 45
16 18 17 18 25 24 19 23 15 13 12 11 11 11 12 19 23 24 24 23 23 23 21 23 24 25 26 28 32 34 34 36 36 36 37 38 40 42 43 46 47 48 50 52 53 52 52 52 52 51 52 53 53 54 54 54 54 53 54 54 54 54 53 52 53 54 55 55 55 54 54 54 54 54 54 54 54 53 52 52 51 50 49 49 49 49 49 49 47 47 46 46 46 44 43 43 44
22 20 18 16 17 16 13 13 19 17 13 12 9 11 16 23 32 29 27 26 26 23 23 24 21 23 29 31 34 35 36 36 37 38 39 39 40 40 41 40 42 45 48 50 51 52 52 52 52 53 52 52 53 53 54 54 54 54 54 54 54 54 53 53 54 54 54 54 54 54 55 53 53 54 54 53 52 53 52 51 49 48 48 47 48 48 48 47 46 46 47 48 46 44 43 43 43